Weather History for Waco, TX

Change the Weather History Date:

Wednesday, June 20, 2012

  Actual Average Record
Temperature  
Mean Temperature 82 °F 82 °F  
Max Temperature 91 °F 93 °F 105 °F (1925)
Min Temperature 73 °F 72 °F 59 °F (1976)
Degree Days  
Heating Degree Days 0 0  
Month to date heating degree days 0 0  
Since 1 June heating degree days 0 0  
Since 1 July heating degree days 1758 2142  
Cooling Degree Days 17 17  
Month to date cooling degree days 362 308  
Year to date cooling degree days 1027 760  
Since 1 June cooling degree days 362 308  
Growing Degree Days 32 (Base 50)    
Moisture  
Dew Point 71 °F    
Average Humidity 70    
Maximum Humidity 87    
Minimum Humidity 52    
Precipitation  
Precipitation 0.76 in 0.10 in 1.71 in (1973)
Month to date precipitation 1.81 2.58  
Year to date precipitation 21.64 17.47  
Sea Level Pressure  
Sea Level Pressure 29.92 in    
Wind  
Wind Speed 12 mph (SSE)    
Max Wind Speed 29 mph    
Max Gust Speed 37 mph    
Visibility 9 miles    
Events Rain , Thunderstorm    
T = Trace of Precipitation, MM = Missing Value Source: NWS Daily Summary

Daily Weather History Graph

Daily Weather History Graph

Search for Another Location

Airport:

Trip Planner

Search our weather history database for the weather conditions in past years. The results will help you decide how hot, cold, wet, or windy it might be!

Date:

Astronomy

Jun. 20, 2012 Rise Set
Actual Time 6:24 AM CDT 8:37 PM CDT
Civil Twilight 5:56 AM CDT 9:05 PM CDT
Nautical Twilight 5:21 AM CDT 9:39 PM CDT
Astronomical Twilight 4:44 AM CDT 10:16 PM CDT
Moon 7:21 AM CDT (6/20) 9:29 PM CDT (6/20)
Length of Visible Light 15h 09m
Length of Day
14h 12m
New Moon, 1% of the Moon is Illuminated
Jun 20
New Moon
Jun 26
First Quarter
Jul 3
Full
Jul 10
Last Quarter
Jul 18
New

Hourly Weather History & Observations

Time (CDT) Temp. Heat Index Dew Point Humidity Pressure Visibility Wind Dir Wind Speed Gust Speed Precip Events Conditions
12:51 AM 77.0 °F - 71.1 °F 82% 29.90 in 10.0 mi SSE 13.8 mph 25.3 mph N/A   Mostly Cloudy
1:51 AM 77.0 °F - 71.1 °F 82% 29.89 in 10.0 mi SSE 17.3 mph 26.5 mph N/A   Overcast
2:51 AM 77.0 °F - 71.1 °F 82% 29.88 in 10.0 mi SSE 17.3 mph 20.7 mph N/A   Overcast
3:31 AM 75.2 °F - 71.6 °F 89% 29.90 in 10.0 mi SSE 18.4 mph 24.2 mph N/A   Scattered Clouds
3:51 AM 75.9 °F - 72.0 °F 87% 29.88 in 10.0 mi SE 16.1 mph - N/A   Mostly Cloudy
4:51 AM 77.0 °F - 72.0 °F 84% 29.88 in 10.0 mi SSE 20.7 mph 26.5 mph N/A   Overcast
5:25 AM 77.0 °F - 71.6 °F 83% 29.91 in 10.0 mi SE 16.1 mph - N/A   Mostly Cloudy
5:51 AM 77.0 °F - 72.0 °F 84% 29.89 in 10.0 mi SSE 15.0 mph - N/A   Overcast
6:51 AM 77.0 °F - 72.0 °F 84% 29.90 in 10.0 mi SSE 15.0 mph - N/A   Overcast
7:38 AM 77.0 °F - 71.6 °F 83% 29.93 in 10.0 mi SE 12.7 mph 21.9 mph N/A   Overcast
7:51 AM 78.1 °F - 71.1 °F 79% 29.91 in 10.0 mi SSE 15.0 mph - N/A   Scattered Clouds
8:39 AM 78.8 °F - 71.6 °F 78% 29.95 in 10.0 mi SE 12.7 mph - N/A   Mostly Cloudy
8:51 AM 79.0 °F - 71.1 °F 77% 29.93 in 10.0 mi SSE 15.0 mph - N/A   Mostly Cloudy
9:35 AM 80.6 °F 84.6 °F 71.6 °F 74% 29.95 in 10.0 mi SSE 13.8 mph - N/A   Scattered Clouds
9:51 AM 81.0 °F 84.4 °F 70.0 °F 69% 29.94 in 10.0 mi SSE 15.0 mph - N/A   Clear
10:51 AM 82.9 °F 87.0 °F 70.0 °F 65% 29.93 in 10.0 mi South 12.7 mph - N/A   Mostly Cloudy
11:51 AM 88.0 °F 92.9 °F 70.0 °F 55% 29.93 in 10.0 mi SSE 16.1 mph 24.2 mph N/A   Mostly Cloudy
11:58 AM 89.6 °F 94.7 °F 69.8 °F 52% 29.95 in 10.0 mi SSE 15.0 mph - N/A   Scattered Clouds
12:51 PM 90.0 °F 95.4 °F 70.0 °F 52% 29.93 in 10.0 mi SE 13.8 mph - N/A   Clear
1:51 PM 87.1 °F 91.3 °F 69.1 °F 55% 29.91 in 10.0 mi SSE 11.5 mph - N/A   Partly Cloudy
2:51 PM 90.0 °F 94.5 °F 69.1 °F 50% 29.88 in 10.0 mi South 11.5 mph 16.1 mph N/A   Clear
3:05 PM 87.8 °F 92.6 °F 69.8 °F 55% 29.92 in 10.0 mi WSW 21.9 mph 32.2 mph N/A Thunderstorm Thunderstorm
3:19 PM 75.2 °F - 68.0 °F 78% 29.92 in 1.5 mi WSW 18.4 mph 36.8 mph 0.02 in Rain , Thunderstorm Heavy Thunderstorms and Rain
3:26 PM 73.4 °F - 68.0 °F 83% 29.95 in 0.5 mi West 6.9 mph 36.8 mph 0.19 in Rain , Thunderstorm Heavy Thunderstorms and Rain
3:39 PM 75.2 °F - 71.6 °F 89% 29.93 in 1.2 mi NE 3.5 mph - 0.57 in Rain , Thunderstorm Thunderstorms and Rain
3:44 PM 75.2 °F - 71.6 °F 89% 29.93 in 3.0 mi ENE 6.9 mph - 0.61 in Rain , Thunderstorm Heavy Thunderstorms and Rain
3:51 PM 75.9 °F - 72.0 °F 87% 29.93 in 3.0 mi SE 8.1 mph - 0.63 in Rain , Thunderstorm Thunderstorms and Rain
4:51 PM 75.0 °F - 71.1 °F 87% 29.91 in 10.0 mi West 8.1 mph - 0.08 in Rain , Thunderstorm Light Rain
5:09 PM 73.4 °F - 71.6 °F 94% 29.93 in 8.0 mi WSW 5.8 mph - 0.02 in Rain Light Rain
5:51 PM 75.9 °F - 70.0 °F 82% 29.91 in 10.0 mi SE 3.5 mph - 0.05 in   Scattered Clouds
6:51 PM 78.1 °F - 72.0 °F 81% 29.91 in 10.0 mi Variable 3.5 mph - N/A   Clear
7:51 PM 78.1 °F - 71.1 °F 79% 29.91 in 10.0 mi SE 12.7 mph - N/A   Clear
8:51 PM 77.0 °F - 71.1 °F 82% 29.91 in 10.0 mi SSE 8.1 mph - N/A   Clear
9:51 PM 75.9 °F - 71.1 °F 85% 29.92 in 10.0 mi ESE 6.9 mph - N/A   Clear
10:51 PM 75.9 °F - 71.1 °F 85% 29.94 in 10.0 mi SE 9.2 mph - N/A   Clear
11:51 PM 75.9 °F - 71.1 °F 85% 29.95 in 10.0 mi SE 8.1 mph - N/A   Clear